TimeEST,TemperatureF,Dew PointF,Humidity,Sea Level PressureIn,VisibilityMPH,Wind Direction,Wind SpeedMPH,Gust SpeedMPH,PrecipitationIn,Events,Conditions,WindDirDegrees,DateUTC
12:53 AM,66.0,62.1,87,30.12,10.0,ESE,4.6,-,N/A,,Partly Cloudy,110,2013-01-13 05:53:00
1:53 AM,64.9,62.1,90,30.12,10.0,East,3.5,-,N/A,,Clear,100,2013-01-13 06:53:00
2:53 AM,64.0,62.1,93,30.11,10.0,ESE,4.6,-,N/A,,Clear,120,2013-01-13 07:53:00
3:53 AM,64.0,62.1,93,30.11,10.0,East,4.6,-,N/A,,Clear,100,2013-01-13 08:53:00
4:53 AM,63.0,62.1,97,30.09,10.0,ESE,6.9,-,N/A,,Clear,120,2013-01-13 09:53:00
5:53 AM,64.0,62.1,93,30.09,10.0,ESE,4.6,-,N/A,,Clear,110,2013-01-13 10:53:00
6:53 AM,63.0,61.0,93,30.10,8.0,ESE,4.6,-,N/A,,Clear,110,2013-01-13 11:53:00
7:53 AM,64.9,63.0,93,30.10,10.0,ESE,6.9,-,N/A,,Clear,110,2013-01-13 12:53:00
8:53 AM,70.0,66.0,87,30.11,10.0,ESE,8.1,-,N/A,,Clear,120,2013-01-13 13:53:00
9:53 AM,75.9,64.9,69,30.16,10.0,SE,10.4,-,N/A,,Clear,130,2013-01-13 14:53:00
10:53 AM,79.0,64.9,62,30.17,10.0,SE,6.9,-,N/A,,Clear,130,2013-01-13 15:53:00
11:53 AM,81.0,63.0,54,30.16,10.0,ESE,9.2,-,N/A,,Partly Cloudy,120,2013-01-13 16:53:00
12:53 PM,82.9,62.1,49,30.12,10.0,SE,8.1,-,N/A,,Scattered Clouds,140,2013-01-13 17:53:00
1:53 PM,84.0,63.0,49,30.09,10.0,Variable,4.6,-,N/A,,Partly Cloudy,0,2013-01-13 18:53:00
2:53 PM,82.9,61.0,47,30.09,10.0,SSE,9.2,-,N/A,,Scattered Clouds,160,2013-01-13 19:53:00
3:53 PM,81.0,63.0,54,30.10,10.0,SW,9.2,-,N/A,,Partly Cloudy,230,2013-01-13 20:53:00
4:53 PM,78.1,64.9,64,30.12,10.0,WSW,6.9,-,N/A,,Scattered Clouds,250,2013-01-13 21:53:00
5:53 PM,75.0,66.9,76,30.13,10.0,WSW,5.8,-,N/A,,Partly Cloudy,250,2013-01-13 22:53:00
6:53 PM,73.0,66.0,79,30.13,10.0,Calm,Calm,-,N/A,,Mostly Cloudy,0,2013-01-13 23:53:00
7:53 PM,71.1,66.0,84,30.12,10.0,Calm,Calm,-,N/A,,Scattered Clouds,0,2013-01-14 00:53:00
8:53 PM,70.0,66.0,87,30.13,10.0,ESE,3.5,-,N/A,,Mostly Cloudy,110,2013-01-14 01:53:00
9:53 PM,70.0,64.9,84,30.13,10.0,SE,6.9,-,N/A,,Clear,140,2013-01-14 02:53:00
10:53 PM,68.0,62.1,81,30.15,10.0,SSE,5.8,-,N/A,,Mostly Cloudy,150,2013-01-14 03:53:00
11:53 PM,64.9,61.0,87,30.16,10.0,Calm,Calm,-,N/A,,Clear,0,2013-01-14 04:53:00